Regional Weather Roundup
Issued by NWS

Home | Current Version | Previous Version | Text Only | Print | Product List | Glossary Off
Versions: 1 2 3 4 5 6 7 8 9 10 11 12 13 14 15 16 17 18 19 20 21 22 23 24 25 26 27 28 29 30 31 32 33 34 35 36 37 38 39 40 41 42 43 44 45 46 47 48 49 50

000
ASUS43 KIND 252059
RWRIN

WEATHER ROUNDUP FOR INDIANA
NATIONAL WEATHER SERVICE INDIANAPOLIS IN
400 PM EST THU DEC 25 2014

NOTE: "FAIR" INDICATES FEW OR NO CLOUDS BELOW 12,000 FEET WITH NO
SIGNIFICANT WEATHER AND/OR OBSTRUCTIONS TO VISIBILITY.

* - STATION DOES NOT REPORT WEATHER SUCH AS PRECIPITATION OR FOG.

+ - STATION NOT QUALITY CONTROLLED BY THE NATIONAL WEATHER SERVICE.
    USE DATA WITH CAUTION...ESPECIALLY DEWPOINT AND RELATIVE
    HUMIDITY OBSERVATIONS.

INZ001>003-010>013-019-020-252200-
NORTHWEST INDIANA

CITY           SKY/WX    TMP DP  RH WIND       PRES   REMARKS
GARY /AIRPORT/ PTSUNNY   43  30  61 SW13      30.00S
KNOX *+        PTSUNNY   39  29  66 SW14G20   30.03R
VALPARAISO     NOT AVBL

$$

LMZ046-743>745-252200-
SOUTHERN LAKE MICHIGAN

STATION/POSITION TIME  TEMP WIND        PRES
                       AIR  DIR/SP/G
                 (UTC) (F)  (DEG/KT/KT) (MB)
MICHIGAN CITY    2000   38  190/ 16/ 19   N/A

$$

INZ004-005-014>016-021>024-252200-
NORTH CENTRAL INDIANA

CITY           SKY/WX    TMP DP  RH WIND       PRES   REMARKS
GOSHEN         CLOUDY    38  31  76 SW16      30.04R
SOUTH BEND     CLOUDY    40  30  67 SW17      30.04R
WARSAW +       CLOUDY    37  32  81 SW8G16    30.05R

$$

INZ006>009-017-018-025>027-252200-
NORTHEAST INDIANA

CITY           SKY/WX    TMP DP  RH WIND       PRES   REMARKS
ANGOLA *+      CLOUDY    36  30  80 W12       30.03R
FORT WAYNE     CLOUDY    37  31  78 SW15      30.08R

$$

INZ028-029-035-036-043>045-051>053-252200-
WEST CENTRAL INDIANA

CITY           SKY/WX    TMP DP  RH WIND       PRES   REMARKS
GREENCASTLE +  MOSUNNY   41  30  65 SW6       30.08R
LAFAYETTE      PTSUNNY   41  32  70 S13       30.06R
TERRE HAUTE    MOSUNNY   45  34  65 S14       30.08R

$$

INZ030>032-037>040-046>048-054>057-064-065-252200-
CENTRAL INDIANA

CITY           SKY/WX    TMP DP  RH WIND       PRES   REMARKS
CP ATTERBURY + PTSUNNY   43  32  65 MISG      30.11R
COLUMBUS       PTSUNNY   41  34  75 S14       30.12R
INDIANAPOLIS   PTSUNNY   39  31  72 S13       30.08R
-EAGLE CREEK   CLOUDY    41  31  67 SW10      30.08R
KOKOMO *+      CLOUDY    39  30  70 SW15      30.08R
MT COMFORT *+  PTSUNNY   41  27  56 SW14      30.09R
SHELBYVILLE    CLOUDY    42  32  67 SW13      30.10R

$$

INZ033-034-041-042-049-050-058-059-252200-
EAST CENTRAL INDIANA

CITY           SKY/WX    TMP DP  RH WIND       PRES   REMARKS
MUNCIE         CLOUDY    39  31  72 SW13      30.08R

$$

INZ060-061-067>069-081>083-085>088-252200-
SOUTHWEST INDIANA

CITY           SKY/WX    TMP DP  RH WIND       PRES   REMARKS
EVANSVILLE     SUNNY     49  34  56 S12       30.12S
HUNTINGBURG *+ MOSUNNY   46  34  61 S13       30.13S

$$

INZ062-063-066-070>080-084-089>092-252200-
SOUTH CENTRAL AND SOUTHEAST INDIANA

CITY           SKY/WX    TMP DP  RH WIND       PRES   REMARKS
BLOOMINGTON    MOSUNNY   44  33  65 S14       30.09R

$$



USA.gov is the U.S. government's official web portal to all federal, state and local government web resources and services.